Temp
6 5 5 5 4 4 4 4 4 4 4 4 4 3 3 2 2 2 2 2 2 2 1 1 1 1 0 0 -0 -0 -0 -0 -1 -1 -1 -1 -1 -1 -1 -1 -1 -1 -2 -2 -2 -2 -3 -3 -3 -3 -4 -4 -4 -4 -4 -4 -4 -4 -4 -4 -4 -4 -4 -4 -4 -4 -4 -4 -4
6 5 5 5 4 4 4 4 4 3 3 3 3 3 3 2 2 2 2 2 2 2 1 1 1 1 1 0 0 -0 -0 -0 -0 -1 -1 -1 -1 -1 -1 -1 -1 -1 -2 -2 -2 -3 -3 -3 -3 -4 -4 -4 -4 -4 -4 -4 -4 -4 -4 -4 -4 -4 -4 -4 -4 -4 -4 -4 -4
6 5 5 5 4 4 4 3 3 3 3 3 3 3 2 2 2 2 2 2 2 2 2 1 1 1 1 0 0 -0 -0 -0 -0 -1 -1 -1 -1 -1 -1 -1 -2 -2 -2 -2 -2 -3 -3 -3 -3 -4 -4 -4 -4 -4 -4 -4 -4 -4 -4 -4 -4 -4 -5 -5 -5 -5 -5 -5 -5
6 5 5 5 4 4 4 3 3 3 3 3 3 2 2 2 2 2 2 2 2 2 1 1 1 1 1 0 0 -0 -0 -0 -0 -0 -1 -1 -1 -1 -2 -2 -2 -2 -2 -2 -2 -3 -3 -3 -4 -4 -4 -4 -4 -4 -4 -4 -4 -4 -4 -4 -5 -5 -5 -5 -5 -5 -5 -5 -5
6 5 5 5 4 4 4 3 3 3 3 2 2 2 2 2 2 2 2 2 2 1 1 1 1 1 1 0 0 0 -0 -0 -0 -0 -1 -1 -1 -1 -2 -2 -2 -2 -2 -2 -3 -3 -3 -3 -4 -4 -4 -4 -4 -4 -4 -4 -4 -4 -5 -5 -5 -5 -5 -5 -5 -5 -5 -5 -5
6 5 5 5 4 4 4 3 3 3 3 2 2 2 2 1 1 1 1 1 1 1 1 1 1 1 0 0 0 -0 -0 -0 -0 -1 -1 -1 -1 -1 -2 -2 -2 -2 -2 -3 -3 -3 -3 -4 -4 -4 -4 -4 -4 -4 -4 -4 -4 -5 -5 -5 -5 -5 -5 -5 -5 -5 -5 -5 -5
6 6 5 5 4 4 4 3 3 3 3 2 2 2 1 1 1 1 1 1 1 1 1 1 1 0 0 0 -0 -0 -0 -0 -1 -1 -1 -1 -1 -2 -2 -2 -2 -2 -3 -3 -3 -3 -4 -4 -4 -4 -4 -4 -4 -4 -4 -4 -4 -5 -5 -5 -5 -5 -5 -5 -5 -5 -5 -5 -5
6 6 5 5 4 4 3 3 3 3 2 2 2 2 1 1 1 1 1 1 1 1 1 0 0 0 -0 -0 -0 -0 -0 -1 -1 -1 -1 -1 -1 -2 -2 -2 -2 -2 -3 -3 -3 -3 -4 -4 -4 -4 -4 -4 -4 -4 -4 -4 -5 -5 -5 -5 -5 -5 -5 -5 -5 -5 -5 -5 -5
6 5 5 5 4 4 3 3 3 2 2 2 2 2 1 1 1 1 1 1 1 1 0 0 0 -0 -0 -0 -0 -0 -1 -1 -1 -1 -1 -1 -1 -2 -2 -2 -2 -3 -3 -3 -3 -4 -4 -4 -4 -4 -4 -4 -4 -4 -4 -5 -5 -5 -5 -5 -5 -5 -5 -5 -5 -6 -5 -5 -6
6 5 5 4 4 3 3 3 2 2 2 2 2 2 1 1 1 1 1 1 1 1 0 0 -0 -0 -0 -1 -1 -1 -1 -1 -1 -1 -1 -1 -2 -2 -2 -2 -3 -3 -3 -3 -4 -4 -4 -4 -4 -4 -4 -4 -4 -4 -4 -5 -5 -5 -5 -5 -5 -5 -5 -5 -5 -5 -6 -6 -6
5 5 5 4 4 3 3 2 2 2 2 2 2 1 1 1 1 1 0 0 0 0 -0 -0 -0 -1 -1 -1 -1 -1 -1 -1 -1 -1 -1 -2 -2 -2 -2 -2 -2 -3 -3 -3 -4 -4 -4 -4 -4 -4 -4 -4 -4 -4 -5 -5 -5 -5 -5 -5 -5 -5 -5 -5 -5 -5 -6 -6 -6
5 5 4 4 4 3 3 2 2 2 2 1 1 1 1 1 1 0 0 0 -0 -0 -0 -0 -1 -1 -1 -1 -1 -1 -1 -1 -1 -1 -2 -2 -2 -2 -2 -3 -3 -3 -3 -3 -4 -4 -4 -4 -4 -4 -4 -4 -4 -4 -5 -5 -5 -5 -5 -5 -5 -6 -6 -6 -6 -6 -6 -6 -6
5 5 4 4 3 3 2 2 2 2 1 1 1 1 1 1 0 0 -0 -0 -0 -0 -1 -1 -1 -1 -1 -1 -1 -1 -1 -2 -2 -2 -2 -2 -2 -2 -3 -3 -3 -3 -3 -3 -4 -4 -4 -4 -4 -4 -4 -4 -4 -4 -5 -5 -5 -5 -5 -5 -6 -6 -6 -6 -6 -6 -6 -6 -6
5 4 4 4 3 3 2 2 2 1 1 1 1 1 1 0 0 -0 -0 -0 -1 -1 -1 -1 -1 -1 -1 -1 -1 -2 -2 -2 -2 -2 -2 -2 -2 -3 -3 -3 -3 -3 -3 -4 -4 -4 -4 -4 -4 -4 -4 -4 -4 -4 -4 -5 -5 -5 -5 -5 -5 -6 -6 -6 -6 -6 -6 -6 -6
4 4 4 3 3 2 2 2 1 1 1 1 1 1 0 0 -0 -0 -0 -1 -1 -1 -1 -1 -1 -2 -2 -2 -2 -2 -2 -2 -2 -2 -2 -3 -3 -3 -3 -3 -4 -4 -4 -4 -4 -4 -3 -3 -3 -3 -4 -4 -4 -4 -4 -5 -5 -5 -5 -5 -5 -5 -6 -6 -6 -6 -6 -6 -6
4 4 4 3 3 2 2 2 1 1 1 1 1 0 0 -0 -0 -0 -1 -1 -1 -1 -1 -1 -2 -2 -2 -2 -2 -2 -2 -2 -2 -3 -3 -3 -3 -3 -3 -4 -4 -4 -4 -4 -4 -4 -3 -3 -3 -3 -3 -3 -3 -4 -4 -4 -5 -5 -5 -5 -5 -5 -5 -6 -6 -6 -6 -6 -6
4 4 3 3 3 2 2 2 2 1 1 1 1 0 0 -0 -0 -1 -1 -1 -1 -1 -2 -2 -2 -2 -2 -2 -2 -3 -3 -3 -3 -3 -3 -3 -3 -3 -4 -4 -4 -4 -3 -3 -3 -3 -3 -3 -3 -3 -3 -3 -3 -4 -4 -4 -4 -5 -5 -5 -5 -5 -5 -6 -6 -6 -6 -6 -6
4 4 3 3 3 3 2 2 2 2 1 1 1 0 0 -0 -0 -1 -1 -1 -1 -2 -2 -2 -2 -2 -2 -3 -3 -3 -3 -3 -3 -3 -3 -3 -3 -3 -3 -3 -3 -3 -3 -3 -3 -3 -3 -3 -3 -3 -3 -3 -3 -4 -4 -4 -5 -5 -5 -5 -5 -5 -5 -5 -6 -6 -6 -6 -6
5 4 4 3 3 3 3 2 2 2 2 1 1 1 0 -0 -0 -1 -1 -1 -1 -2 -2 -2 -2 -2 -3 -3 -3 -3 -3 -3 -3 -3 -3 -3 -3 -3 -3 -3 -3 -3 -3 -3 -3 -3 -3 -3 -3 -3 -3 -3 -4 -4 -4 -5 -5 -5 -5 -5 -5 -5 -5 -5 -6 -6 -6 -6 -6
5 5 4 4 4 3 3 2 2 2 2 1 1 0 0 -0 -0 -1 -1 -1 -1 -2 -2 -2 -2 -3 -3 -3 -3 -3 -3 -3 -3 -3 -3 -3 -4 -3 -3 -3 -3 -3 -3 -3 -3 -3 -3 -3 -3 -3 -3 -3 -4 -4 -5 -5 -5 -5 -5 -5 -5 -5 -5 -5 -6 -6 -6 -6 -6
5 5 5 5 4 4 3 3 2 2 1 1 1 0 0 -0 -1 -1 -1 -1 -1 -2 -2 -2 -2 -3 -3 -3 -3 -3 -3 -3 -4 -4 -4 -4 -4 -4 -4 -4 -4 -4 -3 -3 -3 -3 -3 -3 -3 -3 -3 -3 -4 -4 -5 -5 -5 -5 -5 -5 -5 -5 -5 -5 -6 -6 -6 -6 -6
6 6 5 5 4 4 3 3 2 2 1 1 0 0 -0 -0 -1 -1 -1 -1 -2 -2 -2 -2 -2 -3 -3 -3 -3 -3 -3 -4 -4 -4 -4 -4 -4 -4 -4 -4 -4 -4 -4 -4 -4 -3 -3 -3 -3 -3 -3 -3 -4 -4 -4 -5 -5 -5 -5 -5 -5 -5 -5 -6 -6 -6 -6 -6 -6
5 5 5 4 4 3 3 2 2 1 1 1 0 0 -0 -1 -1 -1 -1 -2 -2 -2 -2 -2 -3 -3 -3 -3 -3 -3 -4 -4 -4 -4 -4 -4 -4 -4 -4 -4 -4 -4 -4 -4 -4 -4 -3 -3 -3 -3 -3 -3 -4 -4 -4 -5 -5 -5 -5 -5 -5 -5 -6 -6 -6 -6 -6 -6 -5
5 5 4 4 3 3 2 2 1 1 1 0 0 -0 -0 -1 -1 -1 -2 -2 -2 -2 -2 -3 -3 -3 -3 -3 -3 -4 -4 -4 -4 -4 -4 -4 -4 -4 -4 -4 -4 -4 -4 -4 -4 -3 -3 -3 -3 -3 -3 -4 -4 -4 -4 -5 -5 -5 -5 -5 -5 -5 -5 -6 -6 -6 -6 -6 -5
5 4 4 3 3 2 2 1 1 1 0 0 0 -0 -0 -1 -1 -1 -2 -2 -2 -2 -3 -3 -3 -3 -3 -4 -4 -4 -4 -4 -4 -4 -4 -4 -4 -4 -4 -5 -5 -5 -5 -4 -4 -3 -3 -3 -3 -3 -3 -4 -4 -4 -5 -5 -5 -5 -5 -5 -5 -5 -5 -6 -6 -6 -6 -6 -5
4 4 3 3 2 2 1 1 1 0 0 -0 -0 -0 -1 -1 -1 -2 -2 -2 -2 -3 -3 -3 -3 -3 -3 -4 -4 -4 -4 -4 -4 -4 -4 -4 -5 -5 -5 -5 -5 -5 -5 -5 -4 -4 -3 -3 -3 -3 -3 -3 -4 -5 -5 -5 -5 -5 -5 -5 -5 -5 -5 -5 -5 -5 -5 -5 -5
4 4 3 3 2 2 1 1 1 0 -0 -0 -1 -1 -1 -1 -1 -2 -2 -2 -3 -3 -3 -3 -3 -3 -4 -4 -4 -4 -4 -4 -4 -4 -4 -4 -5 -5 -5 -5 -5 -5 -5 -5 -4 -4 -3 -3 -3 -3 -3 -3 -4 -4 -5 -5 -5 -5 -5 -5 -5 -5 -5 -5 -5 -5 -5 -5 -5
4 4 3 3 2 2 1 1 1 0 -0 -0 -1 -1 -1 -1 -2 -2 -2 -3 -3 -3 -3 -3 -4 -4 -4 -4 -4 -4 -5 -5 -5 -5 -5 -5 -5 -5 -5 -5 -5 -5 -5 -4 -4 -4 -3 -3 -3 -3 -3 -3 -4 -4 -4 -5 -5 -5 -5 -5 -5 -5 -5 -5 -5 -5 -5 -4 -4
4 4 3 3 2 2 1 1 1 0 0 -0 -0 -1 -1 -1 -2 -2 -2 -3 -3 -3 -3 -4 -4 -4 -4 -4 -4 -4 -5 -5 -5 -5 -5 -5 -5 -5 -5 -5 -5 -5 -5 -4 -4 -3 -3 -3 -2 -2 -3 -3 -4 -4 -5 -5 -5 -5 -5 -5 -5 -5 -5 -5 -5 -5 -4 -4 -4
4 3 3 3 3 2 2 1 1 1 0 -0 -0 -1 -1 -1 -2 -2 -2 -3 -3 -3 -3 -3 -4 -4 -4 -4 -4 -5 -5 -5 -5 -5 -5 -5 -5 -5 -5 -5 -5 -5 -5 -4 -4 -3 -3 -2 -2 -2 -2 -3 -3 -4 -5 -5 -5 -5 -5 -5 -5 -5 -5 -5 -4 -4 -4 -3 -3
3 3 3 3 3 2 2 2 1 1 0 -0 -1 -1 -1 -1 -2 -2 -2 -3 -3 -3 -3 -3 -4 -4 -4 -4 -4 -4 -5 -5 -5 -5 -5 -5 -5 -5 -5 -5 -5 -5 -5 -4 -4 -3 -2 -2 -2 -2 -2 -2 -3 -4 -4 -5 -4 -4 -4 -4 -4 -4 -4 -4 -4 -3 -3 -3 -3
3 3 3 3 3 3 2 2 2 1 0 -0 -0 -1 -1 -1 -2 -2 -2 -2 -3 -3 -3 -4 -4 -4 -4 -4 -4 -4 -5 -5 -5 -5 -5 -5 -5 -5 -5 -5 -5 -5 -4 -4 -3 -3 -2 -2 -1 -1 -1 -2 -2 -3 -4 -4 -4 -4 -4 -3 -3 -3 -3 -3 -3 -3 -3 -2 -2
3 3 3 3 3 3 2 2 2 1 1 0 -0 -1 -1 -1 -2 -2 -2 -2 -3 -3 -3 -3 -4 -4 -4 -4 -4 -4 -4 -5 -5 -5 -5 -5 -5 -5 -5 -5 -5 -5 -4 -4 -3 -3 -2 -2 -1 -1 -1 -1 -2 -2 -3 -3 -3 -3 -3 -3 -3 -3 -3 -3 -2 -2 -2 -2 -2
3 3 3 3 3 3 2 2 2 1 1 0 -0 -0 -1 -1 -2 -2 -2 -3 -3 -3 -3 -3 -4 -4 -4 -4 -4 -4 -4 -4 -5 -5 -5 -5 -5 -5 -5 -5 -4 -5 -4 -4 -3 -3 -2 -1 -1 -1 -1 -1 -1 -2 -2 -2 -3 -3 -3 -3 -3 -3 -3 -2 -2 -2 -2 -2 -2
3 3 3 3 3 3 2 2 2 1 0 0 -0 -0 -1 -1 -2 -2 -2 -2 -3 -3 -3 -3 -4 -4 -4 -4 -4 -4 -4 -4 -4 -5 -5 -5 -5 -5 -5 -4 -4 -4 -4 -4 -3 -3 -2 -1 -1 -1 -1 -1 -1 -1 -2 -2 -2 -2 -2 -2 -2 -2 -2 -2 -2 -2 -2 -2 -2
3 3 3 3 3 3 3 2 2 1 1 0 -0 -1 -1 -1 -2 -2 -2 -2 -3 -3 -3 -3 -4 -4 -4 -4 -4 -4 -4 -4 -4 -4 -5 -5 -5 -5 -5 -4 -4 -4 -4 -4 -3 -3 -2 -1 -1 -1 -1 -1 -1 -1 -1 -2 -2 -2 -2 -2 -2 -2 -2 -2 -2 -2 -2 -2 -2
3 3 3 3 3 3 3 2 2 1 1 0 0 -0 -1 -1 -2 -2 -2 -2 -3 -3 -3 -3 -4 -4 -4 -4 -4 -4 -4 -4 -4 -4 -4 -4 -5 -5 -4 -4 -4 -4 -4 -4 -3 -3 -2 -1 -1 -1 -1 -1 -1 -1 -1 -1 -2 -2 -2 -2 -2 -2 -2 -2 -2 -2 -2 -2 -3
4 4 4 3 3 3 3 2 2 2 1 1 0 -0 -0 -1 -1 -2 -2 -2 -3 -3 -3 -3 -3 -4 -4 -4 -4 -4 -4 -4 -4 -4 -4 -4 -4 -4 -4 -4 -4 -4 -4 -4 -3 -3 -2 -1 -1 -1 -1 -1 -1 -1 -1 -1 -2 -2 -2 -2 -2 -2 -2 -2 -2 -2 -2 -3 -3
4 4 4 3 3 3 3 3 2 2 1 1 1 0 -0 -1 -1 -1 -2 -2 -2 -3 -3 -3 -3 -3 -4 -4 -4 -4 -4 -4 -4 -4 -4 -4 -4 -4 -4 -4 -4 -4 -4 -4 -3 -3 -2 -2 -1 -1 -1 -1 -1 -1 -1 -1 -1 -2 -2 -2 -2 -2 -2 -2 -2 -2 -2 -3 -3
5 4 4 3 3 3 3 3 2 2 2 1 1 0 0 -0 -1 -1 -2 -2 -2 -2 -2 -3 -3 -3 -3 -4 -4 -4 -4 -4 -4 -4 -4 -4 -4 -4 -4 -4 -4 -4 -4 -4 -3 -3 -2 -2 -1 -1 -1 -1 -1 -1 -1 -2 -2 -2 -2 -2 -2 -2 -2 -2 -2 -2 -2 -3 -3
5 4 4 4 3 3 3 2 2 2 2 1 1 1 0 -0 -1 -1 -1 -2 -2 -2 -2 -2 -3 -3 -3 -3 -3 -4 -4 -4 -4 -4 -4 -4 -4 -4 -4 -4 -4 -4 -4 -4 -3 -3 -2 -2 -1 -1 -1 -1 -1 -1 -1 -2 -2 -2 -2 -2 -2 -2 -2 -2 -2 -2 -2 -2 -3
Height
761 761 761 761 761 762 762 762 762 762 763 763 763 763 764 765 765 766 767 767 768 768 769 771 771 772 773 774 775 776 777 778 779 780 781 782 783 784 786 787 789 790 792 794 795 797 798 800 801 802 803 804 805 806 807 807 808 809 810 811 811 812 812 813 813 813 814 814 815
757 758 759 759 759 759 759 759 760 760 761 761 762 762 762 762 763 763 764 764 765 766 767 768 769 770 771 772 772 773 775 776 777 778 779 780 781 782 783 785 786 787 789 791 792 794 796 797 798 799 800 802 802 803 804 805 806 807 808 808 809 810 810 811 811 811 812 812 812
755 756 757 757 757 757 757 757 757 758 758 759 760 760 760 761 761 761 762 762 762 763 765 765 766 767 768 769 770 771 772 773 775 776 777 778 779 780 782 782 784 785 787 788 790 791 792 794 796 797 798 799 800 801 802 803 804 805 806 806 807 807 808 808 808 809 809 810 810
752 753 753 753 753 753 754 754 755 755 756 757 757 758 758 758 759 759 760 761 761 762 762 762 763 764 765 766 767 768 769 771 772 773 775 776 777 778 779 780 782 783 784 785 787 788 790 792 793 794 795 796 797 798 799 801 802 802 803 804 805 805 806 806 806 807 807 807 807
749 750 750 750 750 751 751 752 752 753 754 755 756 756 755 756 757 757 758 759 759 759 760 761 762 762 763 764 765 766 767 768 769 771 772 773 775 776 777 778 779 780 781 782 784 786 787 789 791 792 793 794 795 796 797 798 799 800 801 802 802 803 803 803 804 804 804 804 804
746 746 747 747 747 748 749 750 750 751 752 752 753 753 753 753 754 755 756 756 757 757 758 759 760 760 761 762 762 763 764 765 767 768 770 771 772 773 775 775 776 777 779 780 782 783 785 787 788 789 790 792 792 793 794 796 797 798 799 800 800 800 801 801 801 802 802 802 802
743 743 744 744 745 745 746 747 748 749 750 750 750 750 750 751 752 752 753 754 755 756 757 757 757 758 759 759 760 761 762 763 764 765 767 768 770 771 772 772 773 775 776 777 779 781 782 784 786 787 788 789 790 791 792 793 795 796 797 797 797 798 798 798 799 799 799 799 799
741 741 741 742 742 742 743 744 745 747 747 747 747 747 748 749 749 750 751 752 753 754 754 754 755 755 756 757 757 758 759 760 761 762 764 766 767 768 769 770 771 772 773 775 777 778 780 782 783 784 785 787 788 789 789 790 792 793 794 795 795 795 796 796 796 796 797 797 797
739 739 739 739 740 740 741 742 743 744 744 744 744 745 746 747 747 748 750 751 751 751 752 752 752 753 754 755 755 756 757 758 759 760 761 762 764 765 767 767 768 769 771 772 774 775 777 779 780 781 782 784 785 786 787 788 789 790 791 792 792 793 793 793 793 794 794 794 794
737 737 737 738 738 738 739 740 741 741 742 742 742 743 744 745 746 746 747 748 749 749 750 750 750 752 752 753 753 754 755 756 757 757 759 760 761 762 763 764 765 766 768 769 771 773 775 776 777 778 780 781 782 783 784 785 786 787 788 789 790 790 791 791 791 792 792 792 792
735 735 736 736 736 737 737 738 738 739 740 740 740 741 742 742 743 744 745 746 747 747 747 747 748 749 750 751 751 752 753 754 754 756 757 757 758 759 760 761 762 763 765 767 768 770 772 773 774 776 777 778 780 781 782 782 784 785 786 786 787 787 788 788 789 789 789 789 789
733 733 733 734 734 734 735 736 736 737 737 737 738 739 739 740 741 741 742 743 744 744 745 745 746 747 748 748 749 750 751 752 752 753 754 755 756 757 758 759 760 761 762 764 765 767 768 770 771 773 774 776 777 778 779 780 781 782 783 783 784 785 785 785 786 787 787 787 787
731 731 731 731 731 732 732 732 733 733 734 735 735 736 737 737 738 739 740 741 741 742 742 743 744 745 745 746 747 748 749 750 751 752 752 753 754 755 756 757 757 759 760 761 762 764 765 767 768 770 772 773 774 775 776 777 778 779 780 780 781 782 782 782 783 784 784 784 784
729 729 729 728 728 728 728 729 729 730 731 732 732 733 735 735 736 737 737 737 738 739 740 741 742 742 743 743 745 746 747 747 748 749 750 751 752 752 753 754 755 757 758 759 760 761 762 764 766 767 769 770 771 772 773 774 775 776 777 777 778 778 779 779 780 781 782 782 782
727 727 726 726 726 725 725 725 726 727 727 728 729 730 732 733 733 734 735 735 735 737 737 738 739 739 740 741 742 743 744 746 746 747 748 748 749 750 751 752 753 754 755 756 757 758 760 761 763 764 766 767 768 769 770 771 772 772 773 774 774 775 776 777 777 778 778 779 779
724 724 723 723 723 722 722 722 722 722 723 724 725 727 728 729 730 731 732 732 733 734 735 736 736 737 738 739 740 742 742 743 744 745 745 746 747 747 748 749 751 752 753 754 755 756 757 759 760 762 763 764 765 767 767 768 769 770 770 771 772 772 773 774 774 775 776 776 776
722 721 721 720 720 719 718 718 718 718 718 719 721 722 724 725 727 728 729 729 731 732 732 733 734 735 736 737 738 739 740 741 742 742 742 743 744 745 746 747 748 749 750 751 752 753 755 756 758 759 761 762 763 764 764 765 766 767 767 768 769 769 770 771 772 772 773 773 773
719 718 718 717 716 715 715 714 714 714 714 715 716 717 719 721 722 724 725 726 727 728 729 730 731 732 733 734 735 736 737 738 738 739 740 740 741 742 743 744 745 746 747 748 749 750 752 753 755 757 758 760 760 761 762 762 763 764 764 765 766 767 767 768 769 769 770 770 770
716 716 715 714 713 712 712 711 711 711 711 711 712 713 715 716 718 719 721 722 723 725 726 727 728 729 730 731 732 733 734 735 735 736 737 738 739 740 741 741 742 743 745 746 747 748 749 751 752 754 756 757 757 758 759 760 760 761 761 762 763 763 764 765 766 767 767 767 768
713 712 712 711 710 710 709 709 709 709 709 709 709 710 711 712 714 716 717 718 720 721 722 724 725 726 727 728 729 730 731 732 732 733 734 735 736 737 738 739 740 741 742 743 744 745 747 748 750 751 752 754 755 755 756 757 757 758 758 759 760 761 761 762 763 764 764 765 765
710 709 708 708 708 707 707 707 708 708 708 708 707 707 708 709 711 712 713 715 717 718 719 720 721 722 723 724 725 726 727 728 730 730 731 732 733 734 735 736 737 738 739 740 741 742 744 745 747 748 749 751 751 752 753 753 754 755 756 757 757 758 758 759 760 761 761 762 762
709 708 707 706 706 706 706 706 706 707 707 706 706 706 706 707 707 709 710 712 714 716 717 717 718 719 720 721 722 722 724 725 727 727 728 729 730 731 732 733 734 735 736 737 738 739 741 742 743 745 746 747 748 749 750 750 751 752 753 754 754 755 756 757 757 758 758 759 759
710 708 707 707 706 705 705 705 705 705 705 704 704 704 704 704 704 706 707 709 711 712 713 715 716 717 717 718 719 720 721 722 723 724 725 727 727 728 730 731 731 732 732 733 734 736 737 739 740 741 742 744 745 746 747 747 748 749 750 751 752 752 753 754 755 755 756 756 756
710 709 708 707 707 706 705 705 704 704 703 703 702 702 702 702 702 703 705 706 707 708 710 711 712 714 715 716 717 717 718 719 720 721 722 723 724 725 726 727 727 727 728 729 730 732 733 735 737 738 739 740 742 742 743 744 745 746 747 748 749 750 751 751 752 752 753 753 753
709 708 708 707 707 707 706 705 705 704 703 703 702 702 702 701 701 702 702 703 704 705 706 708 709 710 712 712 713 714 715 716 717 717 718 719 720 721 722 722 723 724 724 725 727 728 730 732 733 734 736 737 738 740 741 742 742 743 744 745 746 747 748 749 749 750 750 750 751
708 707 707 706 706 706 706 705 705 704 704 704 703 703 702 701 701 701 700 701 701 702 703 705 706 707 708 709 710 711 711 712 713 713 714 715 716 717 718 719 719 720 721 722 724 726 727 729 730 731 732 734 736 737 738 738 739 740 742 742 744 745 746 746 747 747 747 747 748
707 706 705 704 704 704 703 703 703 703 703 703 703 702 702 701 700 700 699 699 700 701 702 703 704 706 707 707 707 707 708 709 710 711 711 712 713 714 715 716 716 717 717 719 721 723 725 727 728 729 730 731 732 733 734 736 737 737 739 740 741 742 742 743 744 744 745 745 745
706 705 704 703 702 702 702 702 702 701 701 701 701 701 700 700 699 699 698 698 699 700 702 702 703 704 705 706 706 706 706 707 708 709 710 711 711 712 712 713 714 714 715 717 719 721 723 724 726 727 728 728 729 730 732 733 734 735 737 737 738 739 740 740 741 742 742 743 743
705 704 704 703 702 701 700 700 700 699 699 699 699 699 698 698 698 697 697 698 698 699 700 700 701 702 703 703 703 704 705 706 707 708 709 709 710 710 710 711 712 712 713 715 717 719 720 722 723 724 725 726 727 728 729 730 732 733 734 735 736 736 737 738 738 739 740 740 741
704 703 703 702 701 700 699 698 698 697 697 697 697 697 697 696 696 696 696 696 696 696 697 697 698 699 700 700 701 702 703 704 705 706 707 707 708 708 709 710 710 711 712 713 715 716 717 719 720 722 723 724 725 725 727 728 729 731 732 732 733 733 734 735 736 736 737 737 738
702 702 702 701 700 699 698 697 697 696 696 696 695 695 694 694 693 693 693 693 693 693 694 695 695 695 696 697 698 699 700 701 702 703 704 705 706 706 707 708 708 709 710 711 712 714 715 716 717 719 720 722 722 723 724 725 726 728 729 729 730 731 732 732 733 733 734 735 735
701 701 700 699 698 697 696 696 695 695 694 694 693 693 692 692 691 691 691 691 691 692 692 692 692 692 693 694 695 696 697 698 699 700 701 702 703 704 705 706 706 707 707 709 710 711 712 714 715 716 717 719 720 721 721 722 724 725 726 727 727 728 729 730 730 731 731 732 732
699 699 698 697 696 695 695 694 694 693 692 692 692 691 690 690 689 689 689 689 689 690 690 689 689 690 690 691 692 693 694 695 696 697 698 699 700 701 702 703 703 704 705 706 708 709 710 712 713 714 715 717 718 718 719 721 722 723 724 724 725 726 727 727 727 728 728 729 730
697 697 696 695 694 693 693 692 692 692 691 690 690 689 689 688 688 688 688 688 688 688 688 687 687 688 688 689 690 691 691 692 693 694 695 696 698 699 700 700 700 701 702 704 705 706 708 709 710 712 713 715 716 717 717 719 720 720 721 722 722 723 724 724 725 725 726 727 727
694 694 693 693 692 692 691 691 690 690 689 688 688 687 687 687 687 687 687 687 687 687 687 687 687 687 687 688 688 689 689 690 691 692 692 694 695 696 697 697 697 698 700 701 702 704 705 707 708 709 711 713 714 715 716 717 717 718 718 719 720 721 721 722 722 723 723 724 725
692 691 691 690 690 690 689 689 688 688 687 687 686 686 686 686 686 685 686 686 686 686 686 686 686 686 686 686 687 687 687 688 689 689 690 692 692 693 694 694 695 696 697 698 700 701 703 704 706 707 709 710 712 712 713 714 715 715 716 717 717 718 719 719 720 720 721 722 722
690 689 688 687 687 687 687 687 686 686 685 684 683 683 683 683 683 684 684 685 685 684 684 684 684 684 684 684 684 684 685 686 687 687 688 689 690 690 691 692 692 693 695 696 697 699 700 702 703 705 707 708 709 710 711 712 712 713 714 714 715 716 716 717 717 718 718 718 719
688 687 686 685 684 684 683 683 683 682 682 681 681 681 681 681 681 682 682 682 682 682 682 682 682 682 682 682 682 683 683 684 685 685 686 686 687 687 688 689 690 691 692 693 695 696 697 699 701 702 704 705 706 707 708 709 710 710 711 712 712 713 714 715 715 715 715 715 716
686 685 683 682 682 681 680 680 680 679 679 678 678 678 678 679 679 679 679 680 680 680 680 680 680 680 680 681 681 681 682 682 682 683 684 684 685 685 686 687 687 688 689 691 692 693 695 696 698 699 701 702 703 704 705 706 707 708 709 709 710 711 712 712 713 713 713 712 713
684 683 682 680 679 678 677 677 677 676 676 676 676 676 676 676 676 676 677 677 677 677 677 677 677 678 678 679 679 680 680 680 680 681 681 682 682 683 684 685 685 686 687 688 689 691 692 694 695 697 698 700 701 702 702 704 704 705 706 707 707 708 709 710 710 710 710 710 710
683 682 680 678 677 676 675 674 673 673 673 673 673 673 673 673 674 674 674 675 675 675 675 676 676 676 677 677 677 677 677 678 678 678 679 680 681 681 682 682 683 684 684 686 687 688 690 691 693 694 696 697 698 699 700 701 702 702 703 704 705 706 707 707 707 708 708 708 708
Wind_Speed
30 29 29 28 28 28 28 29 29 29 28 27 27 26 26 26 26 26 26 26 27 27 27 26 27 28 29 30 32 35 37 39 39 40 40 39 39 38 37 36 36 35 34 33 32 30 29 28 27 25 24 23 22 21 20 20 19 19 18 18 18 17 17 18 18 19 19 19 18
31 30 29 28 28 28 28 28 28 28 28 28 27 26 26 26 26 26 26 27 27 27 26 26 26 27 29 30 32 34 36 37 38 39 39 39 39 38 37 36 36 35 35 34 32 31 30 29 27 26 24 23 22 21 20 20 20 19 19 19 18 17 17 18 18 19 19 19 19
31 30 30 29 29 28 28 28 28 28 28 28 27 27 27 27 27 27 27 27 27 27 26 26 27 28 29 30 32 33 35 37 38 38 38 38 38 38 37 36 35 35 35 34 33 32 31 29 28 26 25 24 23 22 21 20 20 20 19 19 18 18 17 17 17 17 17 17 18
30 30 30 31 31 30 29 28 28 28 28 28 27 27 28 28 28 27 27 27 26 27 27 27 27 28 29 30 31 33 34 36 37 38 38 38 37 37 37 37 35 35 34 34 34 33 32 30 28 26 25 25 24 23 21 20 19 19 19 19 19 18 18 18 17 16 16 17 17
30 30 31 31 32 32 31 30 29 28 28 27 27 27 29 29 28 28 27 26 27 27 28 28 27 28 28 30 31 32 34 35 36 37 37 37 37 37 37 36 36 35 35 34 34 33 32 30 27 26 26 25 24 23 22 21 19 19 19 19 19 19 18 18 17 16 16 16 16
30 31 31 32 32 32 32 31 30 29 28 27 27 28 28 29 29 28 28 28 28 28 27 27 28 28 28 29 31 32 34 34 35 36 36 36 36 36 36 36 36 36 35 34 34 33 32 30 27 26 26 25 24 24 23 21 20 19 19 19 19 19 19 18 18 17 17 17 17
30 30 31 31 32 32 32 31 31 29 28 28 28 28 29 29 29 29 29 28 28 27 27 27 28 28 29 30 31 33 33 34 35 36 36 36 35 35 35 36 36 36 35 34 34 33 32 30 28 26 26 25 24 23 23 22 21 20 20 19 19 19 19 19 19 18 18 18 18
28 29 30 31 32 32 33 32 31 30 29 28 28 29 29 29 29 30 29 27 27 27 27 27 29 30 30 31 32 33 34 34 35 35 35 35 35 34 35 35 36 36 36 34 33 32 31 30 29 27 26 25 24 23 23 24 23 23 22 21 20 20 20 20 20 19 19 19 19
28 28 29 30 31 32 32 32 32 31 30 29 29 29 29 29 29 29 29 28 27 27 27 28 30 30 31 32 33 33 34 35 35 35 35 35 35 34 34 35 36 36 35 34 33 33 32 30 29 28 27 25 24 23 24 24 25 25 24 23 22 21 21 20 21 20 20 20 20
28 28 28 29 30 30 31 31 31 31 31 30 30 29 28 28 29 29 29 29 27 27 28 29 30 30 31 32 33 34 35 35 36 35 35 35 35 35 35 36 37 36 35 34 33 32 32 30 29 28 28 27 26 25 24 25 25 26 26 25 24 23 22 21 21 20 20 20 21
28 28 28 28 28 29 29 30 30 30 30 30 30 29 29 28 28 29 29 29 28 28 29 30 30 30 31 32 33 34 35 35 35 35 35 35 35 36 37 37 38 37 36 34 33 32 31 31 30 30 29 27 27 26 25 25 25 26 27 26 26 25 24 23 21 21 21 21 22
28 28 28 27 28 28 29 29 29 30 30 30 30 30 29 29 29 28 28 28 28 29 30 30 30 31 32 33 33 34 34 35 35 35 34 35 35 36 37 38 38 38 37 35 34 32 32 32 32 31 30 29 27 26 26 26 26 27 27 28 26 25 25 24 23 23 22 22 22
27 27 27 27 28 28 29 29 30 30 30 30 30 30 29 29 28 28 28 28 29 29 29 30 31 31 32 33 34 34 34 34 34 34 34 34 35 35 37 38 38 38 37 35 34 34 33 34 33 33 32 30 28 27 27 27 27 28 28 28 27 26 26 26 25 24 24 23 23
26 27 27 27 28 28 29 30 30 30 30 30 30 30 29 28 28 28 28 29 30 30 29 29 30 31 32 33 33 34 33 33 33 33 33 33 34 35 36 37 38 38 36 35 35 35 35 35 35 34 33 32 31 29 29 28 28 29 29 29 29 28 27 27 26 25 25 24 24
25 26 27 27 28 29 29 30 30 30 30 30 30 30 29 28 28 28 28 29 30 30 29 29 30 31 32 33 33 33 33 32 32 32 33 33 33 34 35 36 37 37 37 36 35 36 36 36 36 35 35 34 33 31 30 29 29 30 30 30 30 29 28 27 27 26 26 26 25
25 26 27 27 28 29 30 30 30 30 29 30 30 29 29 28 28 28 29 29 30 29 29 30 30 30 30 31 32 32 31 31 31 32 33 33 33 34 35 36 37 37 37 37 36 36 37 37 37 36 35 34 34 32 31 30 30 30 31 31 30 30 29 28 27 27 27 27 26
26 27 27 28 29 30 30 31 30 29 29 30 30 29 29 29 28 28 29 30 30 29 29 30 30 30 29 29 30 30 30 30 31 32 33 33 34 34 35 36 38 38 38 38 37 37 37 37 37 37 36 35 34 33 32 31 31 31 31 32 31 30 30 29 28 28 28 28 27
26 27 28 29 30 31 32 32 31 31 30 30 30 29 29 29 29 29 30 30 30 30 30 30 30 30 29 29 29 29 30 31 31 32 33 34 34 35 36 37 38 39 40 39 39 38 38 38 37 37 36 35 34 33 32 31 31 32 32 32 31 31 31 30 30 29 28 28 28
26 27 28 29 30 31 32 33 33 32 31 30 30 29 29 30 30 30 30 31 31 31 31 31 30 30 30 30 29 30 30 31 32 33 33 34 35 36 37 38 39 40 40 40 40 39 39 38 38 37 36 35 34 33 32 32 31 32 32 32 32 32 32 31 31 30 29 29 28
27 27 28 29 30 31 32 32 32 32 31 30 29 29 30 30 31 31 31 31 31 31 31 31 31 30 30 30 31 31 31 32 33 33 34 34 35 36 37 38 39 40 40 41 41 40 39 38 38 37 37 35 34 33 32 32 32 32 32 32 32 32 32 32 31 31 30 30 29
28 28 28 28 29 30 30 31 31 31 31 30 29 29 29 30 30 31 31 32 31 31 31 31 31 31 31 31 32 32 32 32 32 34 34 35 35 36 37 38 38 39 40 41 41 41 40 39 38 37 36 35 34 33 33 32 32 32 32 32 32 32 32 31 31 31 31 30 30
29 28 27 28 28 29 29 30 30 30 29 29 29 28 28 29 30 30 31 31 31 30 30 31 31 32 32 32 32 33 33 32 32 33 34 35 35 36 37 37 38 39 40 41 41 41 41 40 39 38 37 35 35 34 33 33 32 32 32 31 31 31 31 30 30 30 30 30 30
29 27 27 27 27 28 28 29 29 29 29 29 29 28 28 28 29 29 30 30 30 31 31 30 30 31 32 32 33 33 33 32 32 33 34 34 35 35 36 37 38 39 41 41 42 42 41 40 39 38 37 36 35 34 34 33 33 32 32 31 30 30 29 29 29 29 29 29 30
27 26 26 26 25 26 26 27 27 28 28 28 28 28 28 27 28 28 29 29 30 31 31 31 30 30 31 32 32 33 33 33 32 32 33 34 35 36 37 37 39 40 41 42 42 42 42 40 39 38 37 36 35 34 34 33 33 32 32 31 30 29 28 28 28 28 28 29 29
26 25 25 24 24 24 24 25 26 27 27 27 27 27 26 26 26 27 28 29 30 31 31 31 31 31 31 31 32 33 33 34 34 33 34 34 35 36 37 38 39 40 41 42 42 42 42 40 39 38 37 36 34 33 33 33 33 33 32 31 30 28 27 27 27 27 27 28 28
24 24 24 23 23 22 22 23 25 25 26 26 25 25 25 25 26 26 27 29 30 31 31 31 31 30 30 31 32 33 34 35 35 35 35 35 36 36 37 37 38 39 40 41 41 41 40 39 38 38 37 35 34 33 32 32 33 33 32 31 30 28 26 26 25 26 26 26 28
22 22 22 22 22 22 22 22 23 24 24 25 25 25 25 25 25 26 27 28 29 29 29 29 30 29 29 29 31 32 33 34 34 35 35 36 35 36 36 36 36 38 39 40 40 40 39 38 37 36 35 35 34 33 32 32 32 32 32 30 29 28 27 26 25 24 24 24 25
21 21 21 21 20 21 21 21 21 22 23 24 24 25 25 25 25 26 26 27 27 27 27 27 28 28 27 27 29 32 33 33 32 32 33 33 34 35 36 35 35 37 39 40 40 39 38 37 36 35 34 33 33 33 33 32 31 30 29 29 28 28 27 26 25 23 22 22 22
22 20 19 19 19 20 20 20 21 22 22 23 24 24 24 24 25 25 25 25 26 26 26 26 26 26 26 26 27 29 31 31 31 30 30 31 32 33 34 34 34 35 37 39 39 39 38 37 36 35 33 32 32 32 31 30 29 27 26 25 25 25 25 24 23 22 21 21 21
23 20 19 19 19 19 19 20 21 22 22 22 23 23 24 24 25 25 25 25 26 26 26 26 26 26 26 26 26 26 27 29 29 29 29 29 30 32 33 33 33 34 36 37 38 39 38 37 37 35 34 32 31 30 29 28 27 25 23 22 22 23 23 23 22 22 22 21 21
22 20 19 19 19 19 19 20 20 21 21 22 22 23 24 24 25 25 26 26 26 27 27 26 27 27 28 27 26 26 26 27 28 29 29 29 30 30 31 32 33 34 35 36 37 38 38 37 37 36 35 33 31 29 28 26 25 24 22 21 22 22 22 22 22 22 22 22 21
21 20 19 19 19 20 20 19 20 20 21 21 22 23 24 25 25 26 26 26 26 26 26 26 27 28 28 27 26 26 26 26 27 28 29 29 30 30 30 30 31 33 34 35 37 37 38 37 36 36 35 34 32 30 29 27 25 24 23 23 22 23 22 22 22 22 22 22 21
21 20 20 20 20 20 20 20 20 20 21 21 22 23 24 24 25 25 25 25 25 26 26 27 27 28 28 28 27 26 26 26 27 28 29 29 29 29 29 30 30 32 33 35 36 37 37 37 36 35 35 35 33 31 30 27 25 24 23 23 23 23 23 23 22 22 22 22 22
21 20 20 20 20 20 20 20 20 20 21 21 22 22 23 24 24 24 24 24 24 25 26 27 27 28 28 28 27 26 26 26 27 28 28 29 29 29 29 29 29 30 32 34 36 36 37 36 36 35 35 34 33 31 29 27 26 25 24 24 24 24 24 24 23 23 23 22 22
20 19 19 19 20 20 20 19 20 20 20 21 22 23 23 24 24 24 24 24 23 23 24 25 26 26 26 26 26 26 26 26 26 26 27 28 28 29 30 30 30 30 31 33 35 36 36 36 36 35 34 33 32 30 29 27 26 26 25 25 24 24 24 25 24 24 24 23 23
17 17 18 18 19 19 19 19 19 20 20 21 22 23 23 23 24 24 24 23 22 22 23 23 23 24 24 24 25 26 26 26 25 25 26 27 28 29 30 30 30 30 30 32 35 36 36 36 35 35 34 32 31 29 28 27 26 26 26 25 25 25 25 25 25 25 24 24 23
18 17 17 18 18 18 19 19 19 20 20 21 22 22 22 23 23 23 23 22 22 22 22 22 22 23 24 24 24 25 25 25 25 25 25 26 27 28 29 30 30 30 30 32 34 35 36 36 35 35 33 31 29 28 26 25 25 25 25 25 25 25 24 24 24 24 24 25 24
19 18 18 18 18 19 19 19 19 20 21 21 22 22 22 22 22 22 22 21 22 22 22 22 22 23 24 25 24 25 25 25 25 25 26 26 27 28 28 29 29 30 30 31 33 35 35 35 35 35 33 30 28 27 25 24 24 24 24 24 24 24 24 23 22 22 23 25 25
19 20 20 20 20 19 19 19 20 21 21 22 21 21 21 21 21 21 21 21 22 22 22 22 23 23 24 24 23 23 24 24 25 25 26 26 27 27 28 28 29 29 29 31 32 34 35 35 35 35 34 31 28 27 25 24 23 23 23 22 22 22 22 22 21 21 21 23 24
19 19 20 21 21 21 20 20 21 21 21 21 21 21 21 21 21 20 20 21 21 22 22 22 22 22 22 22 22 22 23 24 24 25 26 26 27 27 28 28 28 28 29 30 32 33 34 35 35 35 34 31 29 27 24 22 22 22 22 21 20 20 20 21 20 20 20 20 22
19 19 20 21 22 22 21 21 21 21 21 21 21 21 21 20 20 19 19 19 20 20 21 21 21 21 21 21 21 22 22 23 24 25 25 26 26 27 27 28 28 28 28 29 31 33 34 34 35 35 34 31 28 26 24 21 21 21 22 21 20 19 19 19 19 19 18 19 19
Wind_Direction
231 231 232 232 232 232 232 233 233 232 231 230 228 227 225 223 222 223 223 223 223 223 223 223 222 222 221 220 218 218 218 217 217 216 215 214 214 214 215 215 216 216 215 214 214 213 214 214 214 215 217 218 218 218 218 219 219 220 221 222 225 227 229 231 233 234 234 235 237
231 231 232 232 233 233 233 234 233 233 232 231 230 229 227 225 224 224 224 224 224 224 223 223 223 223 222 221 220 219 219 218 218 217 216 215 215 214 214 214 215 216 215 215 213 212 213 213 213 214 215 217 217 217 218 220 221 221 222 223 226 228 229 231 233 234 235 235 236
233 232 232 232 232 232 232 233 233 233 232 231 231 231 230 228 227 226 226 226 225 224 223 223 223 223 221 221 220 220 219 219 218 217 216 215 215 214 214 214 214 215 215 215 213 213 213 212 212 213 214 216 217 217 218 220 222 222 223 224 226 228 230 231 232 233 234 234 234
234 233 232 232 232 232 232 232 233 233 232 232 232 231 230 230 229 228 228 227 226 225 224 223 223 222 221 220 219 219 219 219 219 218 217 216 215 214 214 214 214 214 215 215 214 214 213 212 212 213 214 216 217 217 217 219 221 222 224 225 226 227 229 231 231 231 231 232 232
234 233 233 233 232 233 233 234 234 234 233 232 231 231 231 230 229 229 228 228 227 227 225 224 223 222 221 220 218 218 218 219 219 218 217 216 215 215 214 214 213 214 214 214 214 214 213 212 211 212 214 216 217 218 219 219 220 221 224 226 226 227 228 229 230 230 230 231 231
235 234 234 234 234 234 234 234 234 234 234 233 231 231 231 230 229 228 228 228 228 228 227 225 224 223 221 219 218 217 217 217 217 217 216 215 215 214 214 213 213 214 214 214 214 214 212 210 210 212 214 216 217 219 220 219 219 221 223 225 226 227 227 228 229 229 229 230 230
236 236 235 235 234 234 234 234 234 234 234 233 232 231 231 230 229 229 229 229 229 228 227 224 223 222 220 219 218 217 216 216 216 216 216 215 214 213 213 213 213 213 213 213 213 212 211 210 209 211 213 214 216 218 219 219 219 220 222 223 225 226 227 227 228 229 229 230 230
237 237 237 236 236 235 234 234 233 233 233 233 233 232 232 232 231 230 230 229 229 228 226 224 222 221 221 219 218 217 217 216 216 216 215 215 213 212 212 212 212 212 213 213 212 210 209 209 209 210 212 213 215 217 218 220 220 221 223 224 226 227 227 228 229 229 230 231 230
238 238 238 238 237 236 236 235 234 233 233 234 234 234 234 233 233 232 230 229 229 228 227 225 224 222 222 221 220 219 218 217 216 216 215 214 212 211 211 211 211 211 212 212 211 209 208 208 208 210 211 212 214 216 218 220 221 222 224 225 226 227 228 229 229 230 231 232 232
239 239 239 238 238 238 237 236 235 234 234 235 236 236 235 234 233 232 231 230 230 229 228 226 225 223 222 222 221 220 220 219 218 217 215 214 212 211 210 210 210 210 210 209 209 208 207 207 208 210 211 213 214 216 218 220 222 223 225 227 228 228 228 229 229 230 231 232 233
241 240 239 239 239 239 238 236 236 235 235 236 236 236 236 235 234 233 232 231 230 229 229 228 226 224 223 223 222 222 221 220 219 218 216 214 213 211 211 211 211 210 208 207 206 205 205 206 208 210 211 213 214 216 218 220 222 224 226 228 229 229 229 229 229 229 230 232 234
243 242 241 240 240 239 237 236 236 236 236 236 236 236 236 235 234 233 232 231 230 229 230 229 227 225 224 224 223 223 222 221 220 218 216 215 213 212 212 212 211 210 208 206 204 203 204 206 208 210 211 212 213 216 218 220 222 224 226 228 229 229 228 229 229 229 230 232 234
243 242 240 240 239 238 237 236 236 236 236 236 236 236 236 235 235 233 232 231 230 230 230 229 228 227 225 225 224 223 222 221 220 219 217 216 214 213 212 212 211 210 207 205 204 204 204 206 208 210 210 211 213 216 219 221 223 224 226 227 228 228 228 229 229 229 231 233 234
244 242 240 239 238 237 236 236 236 236 236 236 236 236 236 236 235 233 232 231 231 230 230 229 228 227 226 226 225 224 223 222 221 219 218 216 215 213 212 212 211 209 207 205 204 205 206 208 209 210 211 211 213 217 220 223 224 225 226 227 227 228 229 229 229 230 230 232 234
244 242 240 238 237 236 236 235 235 235 236 236 237 236 236 235 234 233 232 232 231 230 229 228 228 228 227 226 226 225 224 222 221 220 218 217 215 213 212 212 210 209 207 205 205 206 208 210 211 211 212 213 215 218 221 224 226 227 228 228 228 228 229 230 230 230 231 232 234
243 242 240 237 236 235 235 234 235 235 235 235 236 235 234 234 234 233 232 231 231 230 229 228 228 228 227 226 226 225 223 222 221 219 218 216 215 213 212 211 210 209 207 206 206 207 209 211 212 212 213 214 217 219 222 225 227 228 228 229 229 230 230 231 231 231 232 233 235
244 242 240 238 236 235 234 234 233 233 233 233 233 233 232 232 232 232 231 231 230 229 228 228 228 227 226 225 224 223 222 221 220 219 218 216 215 213 212 211 211 210 208 208 207 208 210 211 212 213 214 216 218 221 224 226 227 228 229 230 231 231 232 232 232 232 233 235 236
243 242 240 238 237 236 235 234 234 233 232 231 231 231 231 231 231 231 231 230 230 229 228 228 227 227 226 224 223 222 220 220 219 219 218 217 215 214 213 212 212 211 210 209 209 209 210 211 212 213 215 217 220 223 225 226 227 228 229 230 232 233 234 234 234 234 235 236 238
242 241 240 238 238 238 237 236 235 234 232 231 230 230 230 230 230 229 229 229 229 229 228 227 227 226 225 224 223 221 221 220 220 219 219 218 216 215 214 213 213 212 211 211 210 211 211 211 212 213 214 217 220 223 225 226 227 228 229 230 232 234 235 235 235 236 236 237 240
242 241 240 240 240 239 239 238 237 235 233 231 229 228 228 229 229 229 228 228 229 228 227 226 226 225 224 224 223 222 221 221 220 220 219 218 217 215 214 214 213 213 212 212 211 211 211 211 212 213 215 217 219 222 224 225 226 227 229 231 233 234 236 236 237 237 238 240 242
244 242 242 242 241 240 240 239 238 237 234 232 229 228 228 228 228 228 229 229 229 228 226 225 225 224 223 222 222 221 221 221 221 220 219 218 217 216 215 214 213 213 213 212 211 211 211 211 212 213 215 217 219 222 223 224 225 227 229 230 233 235 236 237 237 238 240 241 243
248 247 246 244 243 242 241 239 238 236 234 232 230 229 228 227 227 228 229 230 228 227 226 225 225 224 223 222 221 221 221 221 220 220 219 218 217 216 215 214 213 213 213 212 211 211 211 212 212 213 215 217 220 222 224 224 225 226 228 230 232 234 236 236 237 238 240 242 244
255 253 250 247 245 243 241 239 237 235 234 232 230 229 227 227 227 228 228 228 227 226 225 225 225 225 224 223 222 221 220 220 219 219 219 218 217 216 214 213 213 213 213 212 212 211 211 211 212 213 215 217 220 222 224 225 225 226 227 229 231 233 235 236 236 238 240 242 245
260 258 255 252 248 245 242 239 237 235 233 232 230 228 227 226 226 226 226 225 225 225 225 225 224 224 224 224 223 222 220 219 218 218 218 217 216 215 214 213 213 213 213 213 212 211 211 210 210 212 214 217 220 222 224 224 225 226 226 228 230 232 234 235 236 237 239 242 244
262 261 258 254 251 248 245 242 239 237 235 234 232 229 227 225 224 224 223 223 224 223 223 223 223 223 222 222 222 221 221 219 218 217 217 216 216 215 213 213 213 213 213 213 213 212 212 211 210 211 213 216 219 221 223 224 225 226 227 228 229 230 232 234 236 237 239 242 244
264 262 259 256 253 250 247 244 242 240 239 237 234 231 228 226 225 224 223 223 223 223 222 222 221 221 221 220 220 220 220 219 219 218 216 215 214 213 213 212 212 213 213 213 212 212 211 211 211 212 213 215 217 219 221 223 224 226 226 227 228 230 231 233 235 237 239 241 244
265 263 260 257 253 250 247 245 244 242 241 239 236 233 231 228 226 225 224 224 223 222 221 221 220 220 220 220 220 219 219 219 218 218 217 215 214 213 212 212 213 213 213 213 212 211 210 210 210 211 213 215 217 218 219 221 223 225 226 227 228 230 231 232 235 236 238 240 242
266 264 262 259 254 250 247 246 243 242 240 239 236 235 233 230 228 226 225 225 223 222 221 220 220 220 220 220 221 220 220 219 218 218 217 217 215 214 213 213 214 214 214 214 213 211 210 209 208 209 212 215 217 219 219 220 221 223 224 226 228 230 232 233 235 236 237 238 239
267 266 264 260 255 252 249 246 243 241 240 238 236 235 233 230 228 227 225 224 222 220 219 219 219 219 219 220 221 222 221 220 220 219 218 218 217 216 216 215 215 216 216 215 213 212 210 208 207 207 209 213 216 218 219 219 220 221 223 225 227 229 231 232 233 235 235 236 237
269 266 264 260 257 254 251 248 245 243 241 239 236 234 232 229 227 226 224 223 221 220 219 218 218 218 218 220 221 221 221 220 220 220 219 219 219 218 218 217 217 217 217 216 214 213 211 209 208 207 207 210 214 217 218 218 218 219 220 222 225 227 228 229 230 232 233 234 235
271 268 264 262 259 256 253 251 248 246 243 240 237 234 231 229 227 225 224 223 222 222 220 219 218 218 219 219 220 220 220 220 219 219 219 219 220 220 220 219 219 219 218 216 215 214 212 210 209 208 207 208 211 214 216 216 217 217 218 220 222 224 226 227 228 229 230 232 233
274 270 266 264 261 258 256 253 250 246 243 240 237 234 232 230 229 228 227 225 224 222 220 219 218 218 219 219 219 219 219 219 218 218 219 220 220 221 221 220 220 220 219 217 216 214 213 211 210 209 208 207 208 211 214 216 217 218 219 221 223 223 224 225 227 228 229 231 232
276 272 268 265 263 261 258 255 251 247 244 240 237 235 233 232 231 230 228 226 224 222 220 219 218 218 218 218 218 218 218 218 218 219 219 219 220 221 222 221 221 221 220 218 217 215 214 212 211 210 209 209 209 210 213 216 217 219 221 223 224 225 226 226 227 229 231 232 234
279 274 270 267 265 263 261 257 252 248 245 242 239 237 235 234 232 230 228 227 225 224 223 222 221 220 220 219 218 218 218 219 219 219 219 219 220 221 222 222 222 221 220 218 218 216 215 213 212 211 210 210 210 211 213 215 217 219 222 223 225 226 227 228 230 232 234 235 236
281 275 270 268 266 264 262 258 254 250 246 243 242 240 238 236 234 232 230 229 228 227 226 225 224 223 223 222 221 220 220 220 220 219 219 219 220 221 222 223 223 222 220 219 218 217 215 214 212 211 211 210 211 212 214 215 218 220 222 224 226 227 228 229 231 234 236 237 238
280 273 269 268 267 265 262 259 255 251 247 244 243 241 240 238 237 235 234 232 230 229 228 227 226 225 224 223 223 222 221 221 221 220 219 219 220 221 223 224 224 223 221 219 219 218 216 214 213 212 211 210 211 213 214 216 218 221 223 225 228 229 231 231 233 235 237 238 238
281 273 268 266 265 263 261 258 254 250 247 245 244 243 241 240 238 237 235 232 230 229 228 227 226 224 224 223 223 223 223 222 221 221 221 220 220 221 223 224 224 223 221 220 219 218 217 215 213 212 210 209 211 212 214 216 219 221 224 226 228 230 231 233 235 236 237 238 237
284 276 270 266 263 261 259 257 253 249 248 247 247 245 243 241 239 237 234 231 228 228 228 227 226 225 225 224 224 225 224 222 221 221 222 222 221 222 223 224 225 224 222 220 219 218 217 215 214 212 210 209 209 210 212 214 217 220 223 225 228 230 232 233 235 237 238 238 237
286 279 273 267 263 261 258 255 252 250 249 249 248 247 244 240 238 237 234 230 228 228 228 228 227 227 226 226 226 226 225 224 223 222 223 224 223 223 223 224 225 224 222 220 220 219 218 216 214 212 210 209 209 210 211 213 216 219 221 223 226 229 231 232 233 235 237 238 237
288 280 274 269 265 261 258 255 252 251 251 250 249 246 243 240 239 237 234 231 230 229 229 230 229 229 228 226 226 226 226 226 224 223 224 225 225 225 224 225 225 224 223 221 220 219 218 217 215 212 210 209 209 209 210 212 214 217 219 221 223 226 228 230 231 233 235 237 238
290 282 275 270 266 262 259 256 254 254 252 250 248 246 245 243 240 237 233 231 229 229 229 231 231 230 228 226 226 227 227 227 225 225 225 226 226 226 225 225 225 225 223 222 221 220 219 217 215 213 211 209 208 208 209 210 212 215 217 219 221 223 225 227 229 231 233 236 238